CZ-6A DEB, 56281

Orbit data source: Space-Track

CZ-6A DEB, 56281 is space debris in SSO originally from a launch on Fri, 11 Nov 2022 UTC launched from the Taiyaun Space Center, China (TSC). Debris objects in space refer to the collection of defunct objects orbiting the Earth. Examples of debris include non-operational satellites, rocket bodies, and fragments generated from explosions, collisions, or faulty payload assembly.

Loading next visibility...
Identifier
56281, 2022-151ACZ
Orbit
SSO
Country
Flag of CNCN / PRC
Related business
Manufacturer
SAST
Mission
Spacecraft
Bus & Motor
Unknown
Mass
Unknown
Launch date (UTC)
2022-11-11 (4 years ago)
Launch vehicle
Unknown
Launch site
Taiyaun Space Center, China (TSC)
Object type
Payload
Rocket body
Debris
Shape & HBR
Unknown shape, 0.1 m
Radar Cross Section
Small (<0.1 m²)

Expand to show TLE details & history
Last TLE update: 1 day ago

TLE from 1 day ago
0 CZ-6A DEB
1 56281U 22151ACZ 26227.97850000  .00000958  00000-0  51213-3 0  9998
2 56281  98.8313 225.1650 0056188 160.6970 199.6349 14.14762292175455
Epoch: 2026-08-15T23:29Z
TLE epoch observation values (Epoch: 2026-08-15T23:29:02.399Z)
Latitude
0.00002°
Longitude
-91.47662°
Altitude
884.273 km
Speed
7.39 km/s
True Right ascension
15h 00m 39s
True Declination
0° 00' 00"
Sunlit
Object was in daylight at epoch
Visualization orbit readout
Latitude
Unknown
Longitude
Unknown
Altitude
Unknown
Speed
Unknown
Apparent Right ascension
Unknown
Apparent Declination
Unknown
Sunlit
N/A
Visualization observer readout
Local Sidereal Time
17:17:03
Azimuth
Unknown
Elevation
Unknown
Doppler factor
Unknown
Orbital elements
Apogee altitude
880.851 km
Perigee altitude
799.733 km
Semi-major axis
7,218.429 km
Eccentricity
0.00562
Inclination
98.8313°
RAAN
225.165°
Arg. of periapsis
160.697°
True anomaly
199.41997°
Mean anomaly
199.6349°
Eccentric anomaly
199.52729°
Mean motion
3.53899 °/min
Orbital period
101.72 mins
BSTAR
0.00051213
Loading maneuver chart data...
Computing Atmospheric mass density...
Loading historical data...
Loading historical data...
Loading historical data...
Loading historical data...
Loading historical data...
Loading historical data...
Loading historical data...

Documentation

Showing up to 5 results
|